Regional Weather Roundup
Issued by NWS Sioux Falls, SD

Home | Current Version | Previous Version | Text Only | Print | Product List | Glossary On
Versions: 1 2 3 4 5 6 7 8 9 10 11 12 13 14 15 16 17 18 19 20 21 22 23 24 25 26 27 28 29 30 31 32 33 34 35 36 37 38 39 40 41 42 43 44 45 46 47 48 49 50
000
ASUS43 KFSD 042210
RWRFSD

WEATHER ROUNDUP FOR SE SOUTH DAKOTA/SW MINNESOTA/NW IOWA
NATIONAL WEATHER SERVICE SIOUX FALLS SD
500 PM CDT TUE AUG 04 2015

NOTE: "FAIR" INDICATES FEW OR NO CLOUDS BELOW 12,000 FEET WITH NO
SIGNIFICANT WEATHER AND OR OBSTRUCTIONS TO VISIBILITY.


SDZ038>040-050-052>070-042300-
SOUTHEAST SOUTH DAKOTA

CITY           SKY/WX    TMP DP  RH WIND       PRES   REMARKS
BROOKINGS      PTSUNNY   75  61  60 S7        30.02S
CHAMBERLAIN    MOSUNNY   80  63  55 SE12      29.95F
HURON          PTSUNNY   80  62  54 SE9       29.96F
MADISON        FAIR      75  64  69 SE7       30.01S
MITCHELL       MOSUNNY   81  63  54 SE9       29.97F
SIOUX FALLS    CLOUDY    77  62  59 E6        29.99F
WINNER         FAIR      84  63  49 E14       29.94F
YANKTON        SUNNY     79  63  57 E12       29.95F
$$

MNZ071-072-080-081-089-090-097-098-042300-
SOUTHWEST MINNESOTA

CITY           SKY/WX    TMP DP  RH WIND       PRES   REMARKS
FAIRMONT       MOSUNNY   77  48  36 CALM      30.00R
JACKSON        PTSUNNY   77  54  44 NE5       30.01S
LUVERNE        CLOUDY    77  61  57 E3        30.01S
MARSHALL       PTSUNNY   79  54  41 S3        30.02S
MONTEVIDEO     MOSUNNY   84  54  34 E3        30.02R
PIPESTONE      PTSUNNY   79  59  50 E5        30.01F
REDWOOD FALLS  PTSUNNY   80  48  32 VRB3      29.99S
TRACY          PTSUNNY   79  54  41 CALM      30.01S
WINDOM         PTSUNNY   77  52  41 CALM      30.01S
WORTHINGTON    CLOUDY    75  55  50 S3        30.01F
$$

IAZ001>003-012>014-020>022-031-032-NEZ013-014-SDZ071-042300-
NORTHWEST IOWA

CITY           SKY/WX    TMP DP  RH WIND       PRES   REMARKS
CHEROKEE       PTSUNNY   78  65  64 E6        29.99S
DENISON        MOSUNNY   77  63  61 SE6       29.98R
ESTHERVILLE    PTSUNNY   75  56  51 CALM      30.00S
LE MARS        MOSUNNY   77  64  65 VRB5      29.99S
ORANGE CITY    PTSUNNY   77  61  57 SE5       29.99F
SHELDON        CLOUDY    77  63  61 E5        29.99S
SIOUX CITY     SUNNY     80  60  50 VRB7      29.97S
SPENCER        CLOUDY    78  58  49 E9        30.00S
STORM LAKE     PTSUNNY   75  64  69 E6        30.01R
$$

ABBREVIATIONS USED IN REMARKS
   TC - TEMPERATURE IN CELSIUS
  WCI - WIND CHILL INDEX
   HX - HEAT INDEX
  VSB - VISIBILITY




USA.gov is the U.S. government's official web portal to all federal, state and local government web resources and services.